Location: Borger
(52.9222°N, 6.7926°E)
Time: 11:09:33
(UTC+00:00)

Cosmos 1975 - Pass Details

Date: 15 May 2026
Orbit: 471 x 485 km, 82.5° (Epoch: 5 June)

Event Time Altitude Azimuth Distance (km) Brightness Sun altitude
Rises 23:27:13 0° 339° (NNW) 2,574 7.6 -18.0°
Reaches altitude 10° 23:29:36 10° 325° (NW) 1,687 6.1 -18.0°
Maximum altitude 23:32:35 24° 271° (W) 1,058 4.2 -18.0°
Enters shadow 23:33:32 21° 247° (WSW) 1,134 4.2 -18.0°
